Location: Buckeye Ditch
(40.9104°N, 122.9517°W)
Time: 11:57:44
(UTC+00:00)

Explorer 7 - Pass Details

Date: 26 May 2025
Orbit: 445 x 571 km, 50.3° (Epoch: 22 June)

Event Time Altitude Azimuth Distance (km) Brightness Sun altitude
Rises 06:35:38 0° 191° (SSW) 2,422 - -24.2°
Reaches altitude 10° 06:38:26 10° 167° (SSE) 1,566 - -24.4°
Maximum altitude 06:40:28 15° 131° (SE) 1,315 - -24.6°
Drops below altitude 10° 06:42:33 10° 96° (E) 1,593 - -24.7°
Sets 06:45:26 0° 72° (ENE) 2,494 - -24.9°
